Location: Rumah Sambob
(2.9167°N, 113.9167°E)
Time: 10:57:13
(UTC+00:00)

COSMOS 2406 - Pass Details

Date: 06 June 2020
Orbit: 843 x 864 km, 71.0° (Epoch: 05 July)

Event Time Altitude Azimuth Distance (km) Brightness Sun altitude
Rises 12:00:17 0° 355° (N) 3,417 6.8 -21.1°
Reaches altitude 10° 12:02:49 10° 0° (N) 2,480 5.9 -21.6°
Maximum altitude 12:08:18 49° 74° (ENE) 1,090 3.4 -22.8°
Enters shadow 12:08:43 48° 89° (E) 1,104 3.4 -22.9°
